STARLINK-1972 (47627 NORAD) Tracking and Keplerian Element Data
This shows tracking and keplerian element data for the satellite.
Feedback or suggestion? Click here.
Element | Value |
Catalog | 47627 |
Name | STARLINK-1972 |
Epoch Orbit | 235 |
Epoch Day | 57.16667824 |
Epoch Year | 2021 |
RAAN | 52.0045 |
Inclination | 53.0495 |
Eccentricity | 0.0007672 |
Argument of Perigee | 273.3626 |
Mean Anonmoly | 354.4342 |
Mean Motion | 15.86383703 |
Decay Rate | 0.00059056 |
L1 | 1 47627U 21012H 21057.16667824 .00059056 00000-0 23132-3 0 9996 |
L2 | 2 47627 53.0495 52.0045 0007672 273.3626 354.4342 15.86383703 2350 |
Live tracking and technical data element details for STARLINK-1972 (NORAD 47627). STARLINK-1972 can be tracked NOW for your location showing map with azimuth and elevation plus other details from your city location.
Track the satellite on the map from your city or location and see movement details for azimuth, elevation, latitude, longitude, range, height, and movement on the map or in text.
IsCatalogInMostPopularTable: catalog: 47627, numindb: 1
Update: records affected: 1
GetName: 47627 STARLINK-1972
Hit Count: updated at: Fri, 26 Feb 2021 10:15:29 GMT